TimeCST,TemperatureF,Dew PointF,Humidity,Sea Level PressureIn,VisibilityMPH,Wind Direction,Wind SpeedMPH,Gust SpeedMPH,PrecipitationIn,Events,Conditions,WindDirDegrees,DateUTC
12:13 AM,15.8,12.2,86,30.24,2.5,NNW,3.5,-,N/A,Snow,Light Snow,330,2013-03-06 06:13:00
12:33 AM,15.8,12.2,86,30.25,2.0,Calm,Calm,-,N/A,Snow,Light Snow,0,2013-03-06 06:33:00
12:52 AM,15.8,12.2,86,30.26,2.0,Calm,Calm,-,N/A,Snow,Light Snow,0,2013-03-06 06:52:00
1:13 AM,15.8,12.2,86,30.26,1.2,Calm,Calm,-,N/A,Snow,Light Snow,0,2013-03-06 07:13:00
1:32 AM,15.8,12.2,86,30.25,1.5,Calm,Calm,-,N/A,Snow,Light Snow,0,2013-03-06 07:32:00
1:53 AM,15.8,12.2,86,30.25,1.8,Calm,Calm,-,N/A,Snow,Light Snow,0,2013-03-06 07:53:00
2:11 AM,15.8,12.2,86,30.26,2.0,Calm,Calm,-,N/A,Snow,Light Snow,0,2013-03-06 08:11:00
2:31 AM,15.8,12.2,86,30.26,2.5,NW,4.6,-,N/A,Snow,Light Snow,320,2013-03-06 08:31:00
2:53 AM,14.0,12.2,93,30.25,4.0,Calm,Calm,-,N/A,Snow,Light Snow,0,2013-03-06 08:53:00
3:12 AM,14.0,12.2,93,30.25,4.0,Calm,Calm,-,N/A,Snow,Light Snow,0,2013-03-06 09:12:00
3:33 AM,12.2,10.4,92,30.25,5.0,Calm,Calm,-,N/A,Snow,Light Snow,0,2013-03-06 09:33:00
3:53 AM,12.2,10.4,92,30.26,5.0,Calm,Calm,-,N/A,Snow,Light Snow,0,2013-03-06 09:53:00
4:12 AM,10.4,8.6,92,30.27,4.0,Calm,Calm,-,N/A,Snow,Light Snow,0,2013-03-06 10:12:00
4:33 AM,8.6,6.8,92,30.28,4.0,WNW,3.5,-,N/A,Snow,Light Snow,290,2013-03-06 10:33:00
4:53 AM,8.6,6.8,92,30.28,5.0,NW,3.5,-,N/A,Snow,Light Snow,310,2013-03-06 10:53:00
5:12 AM,8.6,6.8,92,30.28,10.0,Calm,Calm,-,N/A,Snow,Light Snow,0,2013-03-06 11:12:00
5:33 AM,6.8,5.0,92,30.28,10.0,WNW,3.5,-,N/A,Snow,Light Snow,300,2013-03-06 11:33:00
5:52 AM,3.2,1.4,92,30.28,10.0,Calm,Calm,-,N/A,,Clear,0,2013-03-06 11:52:00
6:13 AM,1.4,-0.4,92,30.28,10.0,West,3.5,-,N/A,,Clear,280,2013-03-06 12:13:00
6:33 AM,-0.4,-4.0,85,30.29,10.0,West,3.5,-,N/A,,Clear,280,2013-03-06 12:33:00
6:52 AM,-0.4,-2.2,92,30.29,10.0,West,3.5,-,N/A,,Clear,280,2013-03-06 12:52:00
7:13 AM,-0.4,-2.2,92,30.30,10.0,WNW,3.5,-,N/A,,Clear,290,2013-03-06 13:13:00
7:32 AM,5.0,3.2,92,30.30,10.0,NW,4.6,-,N/A,,Mostly Cloudy,310,2013-03-06 13:32:00
7:53 AM,10.4,6.8,85,30.30,7.0,NW,3.5,-,N/A,Snow,Light Snow,310,2013-03-06 13:53:00
8:13 AM,10.4,8.6,92,30.30,7.0,NW,3.5,-,N/A,Snow,Light Snow,310,2013-03-06 14:13:00
8:32 AM,12.2,10.4,92,30.30,10.0,WNW,3.5,-,N/A,Snow,Light Snow,300,2013-03-06 14:32:00
8:53 AM,12.2,10.4,92,30.30,10.0,North,5.8,-,N/A,,Clear,350,2013-03-06 14:53:00
9:13 AM,15.8,10.4,79,30.30,10.0,WNW,6.9,-,N/A,,Clear,300,2013-03-06 15:13:00
9:32 AM,15.8,8.6,73,30.31,10.0,NW,10.4,-,N/A,,Clear,320,2013-03-06 15:32:00
9:53 AM,15.8,8.6,73,30.31,10.0,NNW,9.2,-,N/A,,Scattered Clouds,330,2013-03-06 15:53:00
10:13 AM,17.6,8.6,68,30.30,10.0,NW,9.2,-,N/A,Snow,Light Snow,320,2013-03-06 16:13:00
10:32 AM,17.6,10.4,73,30.30,10.0,NW,8.1,-,N/A,,Mostly Cloudy,310,2013-03-06 16:32:00
10:53 AM,19.4,10.4,68,30.29,10.0,NW,6.9,-,N/A,Snow,Light Snow,320,2013-03-06 16:53:00
11:13 AM,19.4,10.4,68,30.29,10.0,NW,4.6,16.1,N/A,Snow,Light Snow,310,2013-03-06 17:13:00
11:32 AM,19.4,8.6,63,30.29,10.0,NW,12.7,18.4,N/A,Snow,Light Snow,320,2013-03-06 17:32:00
11:53 AM,21.2,8.6,58,30.29,10.0,WNW,5.8,16.1,N/A,,Mostly Cloudy,300,2013-03-06 17:53:00
12:13 PM,21.2,8.6,58,30.29,10.0,NW,5.8,-,N/A,Snow,Light Snow,310,2013-03-06 18:13:00
12:32 PM,21.2,8.6,58,30.28,10.0,NW,8.1,-,N/A,,Overcast,310,2013-03-06 18:32:00
12:53 PM,21.2,10.4,63,30.28,10.0,WNW,3.5,-,N/A,,Overcast,300,2013-03-06 18:53:00
1:13 PM,23.0,10.4,59,30.27,10.0,NW,6.9,-,N/A,,Mostly Cloudy,310,2013-03-06 19:13:00
1:32 PM,23.0,10.4,59,30.27,10.0,NW,9.2,-,N/A,,Mostly Cloudy,310,2013-03-06 19:32:00
1:53 PM,23.0,10.4,59,30.26,10.0,NNW,8.1,-,N/A,,Mostly Cloudy,330,2013-03-06 19:53:00
2:13 PM,23.0,8.6,54,30.26,10.0,NW,9.2,-,N/A,,Mostly Cloudy,320,2013-03-06 20:13:00
2:33 PM,24.8,8.6,50,30.26,10.0,NNW,6.9,17.3,N/A,,Scattered Clouds,330,2013-03-06 20:33:00
2:53 PM,24.8,8.6,50,30.25,10.0,NW,10.4,16.1,N/A,,Scattered Clouds,320,2013-03-06 20:53:00
3:12 PM,24.8,10.4,54,30.26,10.0,North,8.1,-,N/A,,Scattered Clouds,350,2013-03-06 21:12:00
3:33 PM,23.0,10.4,59,30.26,10.0,NNW,4.6,-,N/A,,Mostly Cloudy,340,2013-03-06 21:33:00
3:53 PM,23.0,10.4,59,30.25,10.0,WNW,8.1,-,N/A,,Mostly Cloudy,290,2013-03-06 21:53:00
4:12 PM,24.8,10.4,54,30.25,10.0,NNW,6.9,-,N/A,,Scattered Clouds,340,2013-03-06 22:12:00
4:33 PM,23.0,10.4,59,30.26,10.0,North,6.9,-,N/A,,Scattered Clouds,350,2013-03-06 22:33:00
4:53 PM,23.0,10.4,59,30.26,10.0,North,4.6,-,N/A,,Clear,350,2013-03-06 22:53:00
5:12 PM,21.2,10.4,63,30.26,10.0,NNW,5.8,-,N/A,,Clear,340,2013-03-06 23:12:00
5:33 PM,21.2,10.4,63,30.27,10.0,NNW,5.8,-,N/A,,Clear,330,2013-03-06 23:33:00
5:53 PM,21.2,10.4,63,30.27,10.0,NNW,4.6,-,N/A,,Scattered Clouds,330,2013-03-06 23:53:00
6:12 PM,19.4,10.4,68,30.27,10.0,NNW,3.5,-,N/A,,Mostly Cloudy,330,2013-03-07 00:12:00
6:33 PM,19.4,8.6,63,30.27,10.0,NW,3.5,-,N/A,,Mostly Cloudy,310,2013-03-07 00:33:00
6:53 PM,17.6,8.6,68,30.28,10.0,WNW,3.5,-,N/A,,Mostly Cloudy,290,2013-03-07 00:53:00
7:13 PM,17.6,8.6,68,30.28,10.0,Calm,Calm,-,N/A,,Scattered Clouds,0,2013-03-07 01:13:00
7:33 PM,15.8,8.6,73,30.28,10.0,Calm,Calm,-,N/A,,Mostly Cloudy,0,2013-03-07 01:33:00
7:52 PM,15.8,8.6,73,30.28,10.0,Calm,Calm,-,N/A,,Overcast,0,2013-03-07 01:52:00
8:13 PM,15.8,8.6,73,30.28,10.0,WNW,3.5,-,N/A,,Overcast,290,2013-03-07 02:13:00
8:32 PM,17.6,8.6,68,30.29,10.0,Calm,Calm,-,N/A,,Overcast,0,2013-03-07 02:32:00
8:53 PM,15.8,8.6,73,30.29,10.0,Calm,Calm,-,N/A,Snow,Light Snow,0,2013-03-07 02:53:00
9:13 PM,17.6,10.4,73,30.30,10.0,Calm,Calm,-,N/A,,Overcast,0,2013-03-07 03:13:00
9:32 PM,17.6,10.4,73,30.29,10.0,Calm,Calm,-,N/A,Snow,Light Snow,0,2013-03-07 03:32:00
9:53 PM,17.6,10.4,73,30.29,10.0,Calm,Calm,-,N/A,,Overcast,0,2013-03-07 03:53:00
10:13 PM,15.8,10.4,79,30.29,10.0,Calm,Calm,-,N/A,,Overcast,0,2013-03-07 04:13:00
10:33 PM,12.2,8.6,85,30.29,10.0,Calm,Calm,-,N/A,,Mostly Cloudy,0,2013-03-07 04:33:00
10:53 PM,12.2,8.6,85,30.30,10.0,Calm,Calm,-,N/A,,Clear,0,2013-03-07 04:53:00
11:13 PM,8.6,6.8,92,30.29,10.0,Calm,Calm,-,N/A,,Clear,0,2013-03-07 05:13:00
11:33 PM,8.6,6.8,92,30.29,7.0,Calm,Calm,-,N/A,,Scattered Clouds,0,2013-03-07 05:33:00
11:53 PM,6.8,3.2,85,30.30,10.0,Calm,Calm,-,N/A,,Mostly Cloudy,0,2013-03-07 05:53:00